Weather History for Defiance, OH

Change the Weather History Date:

Thursday, September 19, 2013

  Actual Average Record
Temperature  
Mean Temperature 70 °F -  
Max Temperature 81 °F 75 °F 94 °F (1948)
Min Temperature 61 °F 51 °F 35 °F (1959)
Cooling Degree Days 6    
Growing Degree Days 20 (Base 50)    
Moisture  
Dew Point 63 °F    
Average Humidity 80    
Maximum Humidity 94    
Minimum Humidity 56    
Precipitation  
Precipitation 0.09 in - - ()
Sea Level Pressure  
Sea Level Pressure 30.01 in    
Wind  
Wind Speed 3 mph (SSW)    
Max Wind Speed 9 mph    
Max Gust Speed 18 mph    
Visibility 8 miles    
Events Rain    
Averages and records for this station are not official NWS values.
T = Trace of Precipitation, MM = Missing Value Source: NWS Daily Summary

Daily Weather History Graph

Daily Weather History Graph

Search for Another Location

Airport:

Trip Planner

Search our weather history database for the weather conditions in past years. The results will help you decide how hot, cold, wet, or windy it might be!

Date:

Astronomy

Sep. 19, 2013 Rise Set
Actual Time 7:22 AM EDT 7:39 PM EDT
Civil Twilight 6:54 AM EDT 8:07 PM EDT
Nautical Twilight 6:22 AM EDT 8:39 PM EDT
Astronomical Twilight 5:49 AM EDT 9:12 PM EDT
Moon 7:36 PM EDT (9/19) 7:31 AM EDT (9/19)
Length of Visible Light 13h 12m
Length of Day
12h 17m
Full, 100% of the Moon is Illuminated
Sep 19
Full
Sep 26
Last Quarter
Oct 4
New
Oct 11
First Quarter
Oct 18
Full

Hourly Weather History & Observations

Time (EDT) Temp. Heat Index Dew Point Humidity Pressure Visibility Wind Dir Wind Speed Gust Speed Precip Events Conditions
12:53 AM 62.1 °F - 54.0 °F 75% 30.04 in 10.0 mi Calm Calm - N/A   Clear
1:53 AM 61.0 °F - 54.0 °F 78% 30.04 in 10.0 mi Calm Calm - N/A   Clear
2:53 AM 64.0 °F - 55.0 °F 73% 30.04 in 10.0 mi Calm Calm - N/A   Clear
3:53 AM 66.0 °F - 60.1 °F 81% 30.02 in 8.0 mi South 4.6 mph - N/A   Partly Cloudy
4:53 AM 66.0 °F - 61.0 °F 84% 30.02 in 7.0 mi South 3.5 mph - N/A   Mostly Cloudy
5:53 AM 66.9 °F - 62.1 °F 84% 30.01 in 6.0 mi South 3.5 mph - N/A   Haze
6:53 AM 64.0 °F - 61.0 °F 90% 30.03 in 4.0 mi Calm Calm - N/A   Overcast
7:28 AM 64.4 °F - 62.6 °F 94% 30.06 in 3.0 mi Calm Calm - N/A   Overcast
7:41 AM 64.4 °F - 60.8 °F 88% 30.05 in 2.5 mi Calm Calm - N/A   Mostly Cloudy
7:53 AM 64.9 °F - 62.1 °F 90% 30.05 in 3.0 mi Calm Calm - N/A   Scattered Clouds
8:53 AM 68.0 °F - 64.0 °F 87% 30.05 in 4.0 mi SSW 4.6 mph - N/A   Overcast
9:05 AM 68.0 °F - 64.4 °F 88% 30.06 in 4.0 mi South 5.8 mph - N/A   Overcast
9:42 AM 71.6 °F - 64.4 °F 78% 30.05 in 8.0 mi South 5.8 mph - N/A   Mostly Cloudy
9:53 AM 71.1 °F - 64.0 °F 78% 30.05 in 10.0 mi SW 5.8 mph - N/A   Scattered Clouds
10:53 AM 75.0 °F - 64.0 °F 69% 30.04 in 10.0 mi SSW 9.2 mph - N/A   Scattered Clouds
11:53 AM 78.1 °F - 64.0 °F 62% 30.04 in 10.0 mi SSW 9.2 mph - N/A   Scattered Clouds
12:53 PM 80.1 °F 81.5 °F 63.0 °F 56% 30.02 in 10.0 mi SSW 9.2 mph - N/A   Clear
1:53 PM 80.1 °F 81.5 °F 63.0 °F 56% 30.01 in 10.0 mi SW 4.6 mph - N/A   Partly Cloudy
2:53 PM 77.0 °F - 64.0 °F 64% 30.01 in 10.0 mi Variable 6.9 mph 18.4 mph N/A   Mostly Cloudy
3:53 PM 75.0 °F - 64.9 °F 71% 30.02 in 10.0 mi West 6.9 mph - N/A   Clear
4:53 PM 70.0 °F - 66.9 °F 90% 29.99 in 3.0 mi SSW 8.1 mph - 0.07 in Rain Rain
5:53 PM 70.0 °F - 66.0 °F 87% 29.95 in 10.0 mi South 5.8 mph - 0.01 in   Scattered Clouds
6:53 PM 70.0 °F - 66.0 °F 87% 29.96 in 10.0 mi South 3.5 mph - 0.01 in   Clear
7:53 PM 69.1 °F - 64.9 °F 87% 29.95 in 10.0 mi South 4.6 mph - N/A   Clear
8:53 PM 69.1 °F - 66.0 °F 90% 29.94 in 7.0 mi South 4.6 mph - N/A   Clear
9:53 PM 69.1 °F - 66.0 °F 90% 29.97 in 8.0 mi South 4.6 mph - N/A   Clear
10:53 PM 70.0 °F - 66.9 °F 90% 29.96 in 8.0 mi South 6.9 mph - N/A   Mostly Cloudy
11:53 PM 70.0 °F - 66.0 °F 87% 29.94 in 9.0 mi South 5.8 mph - 0.00 in   Mostly Cloudy